Time,TemperatureF,DewpointF,PressureIn,WindDirection,WindDirectionDegrees,WindSpeedMPH,WindSpeedGustMPH,Humidity,HourlyPrecipIn,Conditions,Clouds,dailyrainin,SoftwareType,DateUTC
2013-07-31 00:01:00,60.8,0.0,30.05,West,270,0.4,0.7,0,0.00,,,0.00,WUHU216HW,2013-07-31 04:01:00,
2013-07-31 00:06:00,60.8,0.0,30.05,WSW,248,0.0,1.1,0,0.00,,,0.00,WUHU216HW,2013-07-31 04:06:00,
2013-07-31 00:11:00,60.8,0.0,30.05,WSW,248,0.0,1.1,0,0.00,,,0.00,WUHU216HW,2013-07-31 04:11:00,
2013-07-31 00:16:00,60.8,0.0,30.05,WNW,293,0.4,0.9,0,0.00,,,0.00,WUHU216HW,2013-07-31 04:16:00,
2013-07-31 00:21:00,60.8,0.0,30.05,WNW,293,0.0,0.9,0,0.00,,,0.00,WUHU216HW,2013-07-31 04:21:00,
2013-07-31 00:26:00,60.7,0.0,30.05,WNW,293,0.0,0.9,0,0.00,,,0.00,WUHU216HW,2013-07-31 04:26:00,
2013-07-31 00:31:00,60.5,0.0,30.05,WNW,293,0.9,0.9,0,0.00,,,0.00,WUHU216HW,2013-07-31 04:31:00,
2013-07-31 00:36:00,60.5,0.0,30.05,West,270,0.4,1.1,0,0.00,,,0.00,WUHU216HW,2013-07-31 04:36:00,
2013-07-31 00:41:00,60.5,0.0,30.05,West,270,0.4,1.1,0,0.00,,,0.00,WUHU216HW,2013-07-31 04:41:00,
2013-07-31 00:46:00,60.3,0.0,30.05,West,270,0.4,1.1,0,0.00,,,0.00,WUHU216HW,2013-07-31 04:46:00,
2013-07-31 00:51:00,60.3,0.0,30.05,West,270,0.4,0.7,0,0.00,,,0.00,WUHU216HW,2013-07-31 04:51:00,
2013-07-31 00:56:00,60.3,0.0,30.05,West,270,0.0,0.7,0,0.00,,,0.00,WUHU216HW,2013-07-31 04:56:00,
2013-07-31 01:01:00,60.3,0.0,30.05,West,270,1.1,1.1,0,0.00,,,0.00,WUHU216HW,2013-07-31 05:01:00,
2013-07-31 01:06:00,60.3,0.0,30.05,West,270,0.7,1.1,0,0.00,,,0.00,WUHU216HW,2013-07-31 05:06:00,
2013-07-31 01:11:00,60.1,0.0,30.05,West,270,0.0,1.1,0,0.00,,,0.00,WUHU216HW,2013-07-31 05:11:00,
2013-07-31 01:16:00,60.1,0.0,30.05,West,270,0.0,0.7,0,0.00,,,0.00,WUHU216HW,2013-07-31 05:16:00,
2013-07-31 01:21:00,60.1,0.0,30.05,West,270,0.0,0.9,0,0.00,,,0.00,WUHU216HW,2013-07-31 05:21:00,
2013-07-31 01:26:00,60.1,0.0,30.04,West,270,0.9,0.9,0,0.00,,,0.00,WUHU216HW,2013-07-31 05:26:00,
2013-07-31 01:31:00,59.9,0.0,30.04,WSW,248,0.4,1.1,0,0.00,,,0.00,WUHU216HW,2013-07-31 05:31:00,
2013-07-31 01:36:00,59.9,0.0,30.04,WSW,248,0.4,1.1,0,0.00,,,0.00,WUHU216HW,2013-07-31 05:36:00,
2013-07-31 01:41:00,59.9,0.0,30.04,WSW,248,0.2,0.9,0,0.00,,,0.00,WUHU216HW,2013-07-31 05:41:00,
2013-07-31 01:46:00,59.8,0.0,30.04,WSW,248,0.7,0.9,0,0.00,,,0.00,WUHU216HW,2013-07-31 05:46:00,
2013-07-31 01:51:00,59.8,0.0,30.04,WSW,248,0.0,0.9,0,0.00,,,0.00,WUHU216HW,2013-07-31 05:51:00,
2013-07-31 01:56:00,59.6,0.0,30.04,WSW,248,0.0,0.9,0,0.00,,,0.00,WUHU216HW,2013-07-31 05:56:00,
2013-07-31 02:01:00,59.6,0.0,30.04,WNW,293,0.0,0.9,0,0.00,,,0.00,WUHU216HW,2013-07-31 06:01:00,
2013-07-31 02:06:00,59.4,0.0,30.04,WSW,248,0.7,0.9,0,0.00,,,0.00,WUHU216HW,2013-07-31 06:06:00,
2013-07-31 02:11:00,59.4,0.0,30.04,WSW,248,0.0,0.7,0,0.00,,,0.00,WUHU216HW,2013-07-31 06:11:00,
2013-07-31 02:16:00,59.4,0.0,30.04,West,270,0.0,0.7,0,0.00,,,0.00,WUHU216HW,2013-07-31 06:16:00,
2013-07-31 02:21:00,59.2,0.0,30.04,West,270,0.0,0.2,0,0.00,,,0.00,WUHU216HW,2013-07-31 06:21:00,
2013-07-31 02:26:00,59.2,0.0,30.04,West,270,0.4,0.9,0,0.00,,,0.00,WUHU216HW,2013-07-31 06:26:00,
2013-07-31 02:31:00,59.0,0.0,30.05,West,270,0.0,0.9,0,0.00,,,0.00,WUHU216HW,2013-07-31 06:31:00,
2013-07-31 02:36:00,59.0,0.0,30.05,West,270,0.0,0.4,0,0.00,,,0.00,WUHU216HW,2013-07-31 06:36:00,
2013-07-31 02:41:00,59.0,0.0,30.05,West,270,0.0,0.4,0,0.00,,,0.00,WUHU216HW,2013-07-31 06:41:00,
2013-07-31 02:46:00,58.9,0.0,30.05,West,270,0.0,0.0,0,0.00,,,0.00,WUHU216HW,2013-07-31 06:46:00,
2013-07-31 02:51:00,58.7,0.0,30.05,West,270,0.0,0.2,0,0.00,,,0.00,WUHU216HW,2013-07-31 06:51:00,
2013-07-31 02:56:00,58.7,0.0,30.04,West,270,0.0,0.7,0,0.00,,,0.00,WUHU216HW,2013-07-31 06:56:00,
2013-07-31 03:01:00,58.7,0.0,30.04,West,270,0.0,0.7,0,0.00,,,0.00,WUHU216HW,2013-07-31 07:01:00,
2013-07-31 03:06:00,58.7,0.0,30.05,WSW,248,0.7,0.9,0,0.00,,,0.00,WUHU216HW,2013-07-31 07:06:00,
2013-07-31 03:11:00,58.5,0.0,30.05,WSW,248,0.7,1.1,0,0.00,,,0.00,WUHU216HW,2013-07-31 07:11:00,
2013-07-31 03:16:00,58.5,0.0,30.04,WSW,248,0.0,1.1,0,0.00,,,0.00,WUHU216HW,2013-07-31 07:16:00,
2013-07-31 03:21:00,58.5,0.0,30.04,WSW,248,0.7,0.7,0,0.00,,,0.00,WUHU216HW,2013-07-31 07:21:00,
2013-07-31 03:26:00,58.3,0.0,30.05,WSW,248,0.9,0.9,0,0.00,,,0.00,WUHU216HW,2013-07-31 07:26:00,
2013-07-31 03:31:00,58.3,0.0,30.05,West,270,0.4,0.9,0,0.00,,,0.00,WUHU216HW,2013-07-31 07:31:00,
2013-07-31 03:36:00,58.3,0.0,30.05,West,270,0.0,0.7,0,0.00,,,0.00,WUHU216HW,2013-07-31 07:36:00,
2013-07-31 03:41:00,58.1,0.0,30.05,West,270,0.0,0.4,0,0.00,,,0.00,WUHU216HW,2013-07-31 07:41:00,
2013-07-31 03:46:00,58.1,0.0,30.05,West,270,0.0,0.2,0,0.00,,,0.00,WUHU216HW,2013-07-31 07:46:00,
2013-07-31 03:51:00,58.0,0.0,30.05,West,270,0.4,0.4,0,0.00,,,0.00,WUHU216HW,2013-07-31 07:51:00,
2013-07-31 03:56:00,58.0,0.0,30.05,West,270,0.4,1.1,0,0.00,,,0.00,WUHU216HW,2013-07-31 07:56:00,
2013-07-31 04:01:00,58.0,0.0,30.05,West,270,0.2,1.1,0,0.00,,,0.00,WUHU216HW,2013-07-31 08:01:00,
2013-07-31 04:05:00,57.8,0.0,30.06,West,270,0.4,0.9,0,0.00,,,0.00,WUHU216HW,2013-07-31 08:05:00,
2013-07-31 04:10:00,57.8,0.0,30.06,West,270,0.0,0.9,0,0.00,,,0.00,WUHU216HW,2013-07-31 08:10:00,
2013-07-31 04:15:00,57.6,0.0,30.06,West,270,0.0,0.9,0,0.00,,,0.00,WUHU216HW,2013-07-31 08:15:00,
2013-07-31 04:20:00,57.6,0.0,30.06,West,270,0.0,0.0,0,0.00,,,0.00,WUHU216HW,2013-07-31 08:20:00,
2013-07-31 04:25:00,57.2,0.0,30.06,SSE,158,0.4,0.4,0,0.00,,,0.00,WUHU216HW,2013-07-31 08:25:00,
2013-07-31 04:30:00,57.2,0.0,30.06,SSE,158,0.0,0.4,0,0.00,,,0.00,WUHU216HW,2013-07-31 08:30:00,
2013-07-31 04:35:00,57.1,0.0,30.06,SSE,158,0.0,0.4,0,0.00,,,0.00,WUHU216HW,2013-07-31 08:35:00,
2013-07-31 04:40:00,56.7,0.0,30.07,SSE,158,0.0,0.0,0,0.00,,,0.00,WUHU216HW,2013-07-31 08:40:00,
2013-07-31 04:45:00,56.7,0.0,30.07,SSE,158,0.0,0.0,0,0.00,,,0.00,WUHU216HW,2013-07-31 08:45:00,
2013-07-31 04:50:00,56.5,0.0,30.07,SSE,158,0.0,0.0,0,0.00,,,0.00,WUHU216HW,2013-07-31 08:50:00,
2013-07-31 04:55:00,56.3,0.0,30.07,WNW,293,0.0,0.4,0,0.00,,,0.00,WUHU216HW,2013-07-31 08:55:00,
2013-07-31 05:00:00,56.3,0.0,30.07,WNW,293,0.4,0.4,0,0.00,,,0.00,WUHU216HW,2013-07-31 09:00:00,
2013-07-31 05:05:00,56.2,0.0,30.07,WNW,293,0.7,0.9,0,0.00,,,0.00,WUHU216HW,2013-07-31 09:05:00,
2013-07-31 05:10:00,56.3,0.0,30.07,WNW,293,0.0,0.9,0,0.00,,,0.00,WUHU216HW,2013-07-31 09:10:00,
2013-07-31 05:15:00,56.2,0.0,30.07,WNW,293,0.0,0.7,0,0.00,,,0.00,WUHU216HW,2013-07-31 09:15:00,
2013-07-31 05:20:00,56.2,0.0,30.07,WNW,293,0.0,0.0,0,0.00,,,0.00,WUHU216HW,2013-07-31 09:20:00,
2013-07-31 05:25:00,56.2,0.0,30.08,WSW,248,1.1,1.1,0,0.00,,,0.00,WUHU216HW,2013-07-31 09:25:00,
2013-07-31 05:30:00,56.2,0.0,30.08,SW,225,1.1,1.1,0,0.00,,,0.00,WUHU216HW,2013-07-31 09:30:00,
2013-07-31 05:35:00,56.2,0.0,30.08,WSW,248,0.7,1.8,0,0.00,,,0.00,WUHU216HW,2013-07-31 09:35:00,
2013-07-31 05:40:00,56.2,0.0,30.08,WSW,248,0.4,1.8,0,0.00,,,0.00,WUHU216HW,2013-07-31 09:40:00,
2013-07-31 05:45:00,56.2,0.0,30.08,WNW,293,0.7,0.7,0,0.00,,,0.00,WUHU216HW,2013-07-31 09:45:00,
2013-07-31 05:50:00,56.2,0.0,30.08,WNW,293,0.0,0.7,0,0.00,,,0.00,WUHU216HW,2013-07-31 09:50:00,
2013-07-31 05:55:00,56.3,0.0,30.08,West,270,0.4,0.7,0,0.00,,,0.00,WUHU216HW,2013-07-31 09:55:00,
2013-07-31 06:00:00,56.3,0.0,30.08,West,270,0.0,0.7,0,0.00,,,0.00,WUHU216HW,2013-07-31 10:00:00,
2013-07-31 06:05:00,56.3,0.0,30.08,West,270,0.0,0.7,0,0.00,,,0.00,WUHU216HW,2013-07-31 10:05:00,
2013-07-31 06:10:00,56.3,0.0,30.09,West,270,0.0,0.4,0,0.00,,,0.00,WUHU216HW,2013-07-31 10:10:00,
2013-07-31 06:15:00,56.3,0.0,30.09,SW,225,0.4,0.7,0,0.00,,,0.00,WUHU216HW,2013-07-31 10:15:00,
2013-07-31 06:20:00,56.5,0.0,30.09,WNW,293,0.0,1.3,0,0.00,,,0.00,WUHU216HW,2013-07-31 10:20:00,
2013-07-31 06:25:00,56.5,0.0,30.09,WNW,293,0.0,1.3,0,0.00,,,0.00,WUHU216HW,2013-07-31 10:25:00,
2013-07-31 06:30:00,56.5,0.0,30.09,West,270,0.0,0.2,0,0.00,,,0.00,WUHU216HW,2013-07-31 10:30:00,
2013-07-31 06:35:00,56.7,0.0,30.09,West,270,0.0,1.1,0,0.00,,,0.00,WUHU216HW,2013-07-31 10:35:00,
2013-07-31 06:40:00,56.9,0.0,30.09,West,270,0.4,1.1,0,0.00,,,0.00,WUHU216HW,2013-07-31 10:40:00,
2013-07-31 06:45:00,56.9,0.0,30.09,WSW,248,0.0,0.7,0,0.00,,,0.00,WUHU216HW,2013-07-31 10:45:00,
2013-07-31 06:50:00,57.1,0.0,30.10,WSW,248,0.0,0.7,0,0.00,,,0.00,WUHU216HW,2013-07-31 10:50:00,
2013-07-31 06:55:00,57.2,0.0,30.10,WSW,248,0.0,0.0,0,0.00,,,0.00,WUHU216HW,2013-07-31 10:55:00,
2013-07-31 07:00:00,57.2,0.0,30.10,West,270,1.1,1.1,0,0.00,,,0.00,WUHU216HW,2013-07-31 11:00:00,
2013-07-31 07:05:00,57.6,0.0,30.10,WSW,248,0.9,1.8,0,0.00,,,0.00,WUHU216HW,2013-07-31 11:05:00,
2013-07-31 07:10:00,58.0,0.0,30.10,WSW,248,0.4,1.8,0,0.00,,,0.00,WUHU216HW,2013-07-31 11:10:00,
2013-07-31 07:15:00,58.3,0.0,30.10,West,270,0.0,1.1,0,0.00,,,0.00,WUHU216HW,2013-07-31 11:15:00,
2013-07-31 07:20:00,58.7,0.0,30.10,NNW,338,0.2,0.4,0,0.00,,,0.00,WUHU216HW,2013-07-31 11:20:00,
2013-07-31 07:25:00,58.9,0.0,30.10,WNW,293,0.9,1.1,0,0.00,,,0.00,WUHU216HW,2013-07-31 11:25:00,
2013-07-31 07:30:00,59.4,0.0,30.10,North,0,0.4,2.0,0,0.00,,,0.00,WUHU216HW,2013-07-31 11:30:00,
2013-07-31 07:35:00,59.9,0.0,30.11,WSW,248,2.2,2.2,0,0.00,,,0.00,WUHU216HW,2013-07-31 11:35:00,
2013-07-31 07:40:00,60.1,0.0,30.11,West,270,0.2,2.2,0,0.00,,,0.00,WUHU216HW,2013-07-31 11:40:00,
2013-07-31 07:45:00,60.7,0.0,30.11,NW,315,0.0,2.2,0,0.00,,,0.00,WUHU216HW,2013-07-31 11:45:00,
2013-07-31 07:50:00,61.0,0.0,30.11,WNW,293,0.7,2.0,0,0.00,,,0.00,WUHU216HW,2013-07-31 11:50:00,
2013-07-31 07:55:00,61.6,0.0,30.10,West,270,0.9,3.1,0,0.00,,,0.00,WUHU216HW,2013-07-31 11:55:00,
2013-07-31 08:00:00,62.3,0.0,30.10,WSW,248,2.0,3.1,0,0.00,,,0.00,WUHU216HW,2013-07-31 12:00:00,
2013-07-31 08:05:00,63.0,0.0,30.11,NW,315,3.8,4.0,0,0.00,,,0.00,WUHU216HW,2013-07-31 12:05:00,
2013-07-31 08:10:00,63.9,0.0,30.11,WNW,293,1.6,4.3,0,0.00,,,0.00,WUHU216HW,2013-07-31 12:10:00,
2013-07-31 08:15:00,64.4,0.0,30.10,East,90,1.1,4.3,0,0.00,,,0.00,WUHU216HW,2013-07-31 12:15:00,
2013-07-31 08:20:00,65.0,0.0,30.11,NW,315,1.8,5.8,0,0.00,,,0.00,WUHU216HW,2013-07-31 12:20:00,
2013-07-31 08:25:00,65.3,0.0,30.10,West,270,0.4,5.8,0,0.00,,,0.00,WUHU216HW,2013-07-31 12:25:00,
2013-07-31 08:30:00,65.7,0.0,30.11,WNW,293,3.1,4.9,0,0.00,,,0.00,WUHU216HW,2013-07-31 12:30:00,
2013-07-31 08:35:00,66.2,0.0,30.11,WNW,293,2.0,5.4,0,0.00,,,0.00,WUHU216HW,2013-07-31 12:35:00,
2013-07-31 08:40:00,66.6,0.0,30.10,SW,225,2.5,5.4,0,0.00,,,0.00,WUHU216HW,2013-07-31 12:40:00,
2013-07-31 08:45:00,67.0,0.0,30.10,WSW,248,2.5,4.9,0,0.00,,,0.00,WUHU216HW,2013-07-31 12:45:00,
2013-07-31 08:50:00,67.1,0.0,30.10,WNW,293,1.1,4.9,0,0.00,,,0.00,WUHU216HW,2013-07-31 12:50:00,
2013-07-31 08:55:00,67.3,0.0,30.10,NNW,338,1.1,5.6,0,0.00,,,0.00,WUHU216HW,2013-07-31 12:55:00,
2013-07-31 09:00:00,67.7,0.0,30.10,NNW,338,2.5,5.6,0,0.00,,,0.00,WUHU216HW,2013-07-31 13:00:00,
2013-07-31 09:05:00,67.9,0.0,30.10,WNW,293,3.1,6.3,0,0.00,,,0.00,WUHU216HW,2013-07-31 13:05:00,
2013-07-31 09:10:00,68.2,0.0,30.10,West,270,2.5,6.3,0,0.00,,,0.00,WUHU216HW,2013-07-31 13:10:00,
2013-07-31 09:15:00,68.4,0.0,30.10,NNW,338,3.1,5.4,0,0.00,,,0.00,WUHU216HW,2013-07-31 13:15:00,
2013-07-31 09:20:00,68.8,0.0,30.10,West,270,1.8,4.7,0,0.00,,,0.00,WUHU216HW,2013-07-31 13:20:00,
2013-07-31 09:25:00,68.8,0.0,30.11,WSW,248,3.1,4.9,0,0.00,,,0.00,WUHU216HW,2013-07-31 13:25:00,
2013-07-31 09:30:00,69.3,0.0,30.10,SSW,203,2.2,5.1,0,0.00,,,0.00,WUHU216HW,2013-07-31 13:30:00,
2013-07-31 09:35:00,69.5,0.0,30.10,NE,45,1.6,5.1,0,0.00,,,0.00,WUHU216HW,2013-07-31 13:35:00,
2013-07-31 09:40:00,69.7,0.0,30.10,NNW,338,2.5,4.7,0,0.00,,,0.00,WUHU216HW,2013-07-31 13:40:00,
2013-07-31 09:45:00,70.0,0.0,30.10,NW,315,5.4,5.4,0,0.00,,,0.00,WUHU216HW,2013-07-31 13:45:00,
2013-07-31 09:50:00,70.4,0.0,30.10,NW,315,3.1,5.4,0,0.00,,,0.00,WUHU216HW,2013-07-31 13:50:00,
2013-07-31 09:55:00,70.9,0.0,30.10,North,0,0.7,4.3,0,0.00,,,0.00,WUHU216HW,2013-07-31 13:55:00,
2013-07-31 10:00:00,72.0,0.0,30.10,West,270,3.1,3.8,0,0.00,,,0.00,WUHU216HW,2013-07-31 14:00:00,
2013-07-31 10:05:00,73.6,0.0,30.09,WNW,293,4.7,5.6,0,0.00,,,0.00,WUHU216HW,2013-07-31 14:05:00,
2013-07-31 10:10:00,75.1,0.0,30.09,WNW,293,3.8,5.6,0,0.00,,,0.00,WUHU216HW,2013-07-31 14:10:00,
2013-07-31 10:15:00,75.8,0.0,30.09,NNW,338,2.7,5.4,0,0.00,,,0.00,WUHU216HW,2013-07-31 14:15:00,
2013-07-31 10:20:00,76.5,0.0,30.09,NE,45,4.9,5.1,0,0.00,,,0.00,WUHU216HW,2013-07-31 14:20:00,
2013-07-31 10:25:00,77.0,0.0,30.09,NNW,338,1.6,5.1,0,0.00,,,0.00,WUHU216HW,2013-07-31 14:25:00,
2013-07-31 10:30:00,77.6,0.0,30.09,SSW,203,0.9,4.9,0,0.00,,,0.00,WUHU216HW,2013-07-31 14:30:00,
2013-07-31 10:35:00,78.1,0.0,30.08,NE,45,2.5,4.7,0,0.00,,,0.00,WUHU216HW,2013-07-31 14:35:00,
2013-07-31 10:40:00,78.7,0.0,30.08,WSW,248,1.6,3.4,0,0.00,,,0.00,WUHU216HW,2013-07-31 14:40:00,
2013-07-31 10:45:00,79.6,0.0,30.08,North,0,1.6,3.8,0,0.00,,,0.00,WUHU216HW,2013-07-31 14:45:00,
2013-07-31 10:50:00,80.1,0.0,30.08,SSE,158,1.3,3.8,0,0.00,,,0.00,WUHU216HW,2013-07-31 14:50:00,
2013-07-31 10:55:00,80.6,0.0,30.08,West,270,1.3,4.7,0,0.00,,,0.00,WUHU216HW,2013-07-31 14:55:00,
2013-07-31 11:00:00,80.6,0.0,30.08,SSW,203,0.9,4.7,0,0.00,,,0.00,WUHU216HW,2013-07-31 15:00:00,
2013-07-31 11:05:00,81.2,0.0,30.08,WNW,293,0.4,2.7,0,0.00,,,0.00,WUHU216HW,2013-07-31 15:05:00,
2013-07-31 11:10:00,81.4,0.0,30.08,West,270,3.4,5.4,0,0.00,,,0.00,WUHU216HW,2013-07-31 15:10:00,
2013-07-31 11:15:00,81.7,0.0,30.08,ESE,113,0.2,5.4,0,0.00,,,0.00,WUHU216HW,2013-07-31 15:15:00,
2013-07-31 11:20:00,82.1,0.0,30.08,WSW,248,3.4,4.7,0,0.00,,,0.00,WUHU216HW,2013-07-31 15:20:00,
2013-07-31 11:25:00,82.4,0.0,30.07,WNW,293,2.5,3.6,0,0.00,,,0.00,WUHU216HW,2013-07-31 15:25:00,
2013-07-31 11:30:00,82.4,0.0,30.07,West,270,1.1,3.6,0,0.00,,,0.00,WUHU216HW,2013-07-31 15:30:00,
2013-07-31 11:35:00,82.1,0.0,30.08,West,270,0.4,4.0,0,0.00,,,0.00,WUHU216HW,2013-07-31 15:35:00,
2013-07-31 11:40:00,82.1,0.0,30.07,WNW,293,2.5,4.0,0,0.00,,,0.00,WUHU216HW,2013-07-31 15:40:00,
2013-07-31 11:45:00,81.7,0.0,30.07,SE,135,1.8,4.9,0,0.00,,,0.00,WUHU216HW,2013-07-31 15:45:00,
2013-07-31 11:50:00,81.9,0.0,30.08,NW,315,1.8,4.9,0,0.00,,,0.00,WUHU216HW,2013-07-31 15:50:00,
2013-07-31 11:55:00,81.7,0.0,30.07,SSW,203,0.0,3.1,0,0.00,,,0.00,WUHU216HW,2013-07-31 15:55:00,
2013-07-31 12:00:00,81.5,0.0,30.08,NW,315,0.9,3.1,0,0.00,,,0.00,WUHU216HW,2013-07-31 16:00:00,
2013-07-31 12:05:00,81.7,0.0,30.07,South,180,0.7,4.3,0,0.00,,,0.00,WUHU216HW,2013-07-31 16:05:00,
2013-07-31 12:10:00,82.1,0.0,30.07,WSW,248,1.1,4.3,0,0.00,,,0.00,WUHU216HW,2013-07-31 16:10:00,
2013-07-31 12:15:00,81.7,0.0,30.07,WNW,293,2.2,3.6,0,0.00,,,0.00,WUHU216HW,2013-07-31 16:15:00,
2013-07-31 12:20:00,81.0,0.0,30.07,North,0,2.0,3.1,0,0.00,,,0.00,WUHU216HW,2013-07-31 16:20:00,
2013-07-31 12:25:00,81.2,0.0,30.07,ESE,113,1.1,3.8,0,0.00,,,0.00,WUHU216HW,2013-07-31 16:25:00,
2013-07-31 12:30:00,81.9,0.0,30.06,South,180,1.6,3.8,0,0.00,,,0.00,WUHU216HW,2013-07-31 16:30:00,
2013-07-31 12:35:00,81.5,0.0,30.06,NW,315,2.0,6.0,0,0.00,,,0.00,WUHU216HW,2013-07-31 16:35:00,
2013-07-31 12:40:00,81.0,0.0,30.06,NNE,23,1.8,6.5,0,0.00,,,0.00,WUHU216HW,2013-07-31 16:40:00,
2013-07-31 12:45:00,80.3,0.0,30.06,SSW,203,3.4,6.5,0,0.00,,,0.00,WUHU216HW,2013-07-31 16:45:00,
2013-07-31 12:50:00,80.5,0.0,30.06,SE,135,1.8,4.3,0,0.00,,,0.00,WUHU216HW,2013-07-31 16:50:00,
2013-07-31 12:55:00,80.6,0.0,30.06,WSW,248,4.0,4.5,0,0.00,,,0.00,WUHU216HW,2013-07-31 16:55:00,
2013-07-31 13:00:00,80.8,0.0,30.06,West,270,4.0,4.5,0,0.00,,,0.00,WUHU216HW,2013-07-31 17:00:00,
2013-07-31 13:05:00,80.3,0.0,30.06,SE,135,2.7,4.3,0,0.00,,,0.00,WUHU216HW,2013-07-31 17:05:00,
2013-07-31 13:10:00,80.8,0.0,30.05,WNW,293,1.1,4.3,0,0.00,,,0.00,WUHU216HW,2013-07-31 17:10:00,
2013-07-31 13:15:00,81.0,0.0,30.05,SW,225,2.5,3.4,0,0.00,,,0.00,WUHU216HW,2013-07-31 17:15:00,
2013-07-31 13:20:00,81.2,0.0,30.05,WNW,293,2.2,3.4,0,0.00,,,0.00,WUHU216HW,2013-07-31 17:20:00,
2013-07-31 13:25:00,80.5,0.0,30.05,SSW,203,2.2,3.6,0,0.00,,,0.00,WUHU216HW,2013-07-31 17:25:00,
2013-07-31 13:30:00,80.3,0.0,30.05,WSW,248,2.0,6.3,0,0.00,,,0.00,WUHU216HW,2013-07-31 17:30:00,
2013-07-31 13:35:00,80.6,0.0,30.05,SSE,158,2.7,6.3,0,0.00,,,0.00,WUHU216HW,2013-07-31 17:35:00,
2013-07-31 13:40:00,80.8,0.0,30.05,SE,135,2.5,5.4,0,0.00,,,0.00,WUHU216HW,2013-07-31 17:40:00,
2013-07-31 13:45:00,80.6,0.0,30.05,WSW,248,2.5,4.7,0,0.00,,,0.00,WUHU216HW,2013-07-31 17:45:00,
2013-07-31 13:50:00,80.6,0.0,30.05,NNE,23,0.9,3.4,0,0.00,,,0.00,WUHU216HW,2013-07-31 17:50:00,
2013-07-31 13:55:00,81.4,0.0,30.05,WNW,293,1.1,2.9,0,0.00,,,0.00,WUHU216HW,2013-07-31 17:55:00,
2013-07-31 14:00:00,81.4,0.0,30.05,NW,315,4.9,4.9,0,0.00,,,0.00,WUHU216HW,2013-07-31 18:00:00,
2013-07-31 14:05:00,81.7,0.0,30.05,WNW,293,5.1,5.1,0,0.00,,,0.00,WUHU216HW,2013-07-31 18:05:00,
2013-07-31 14:10:00,81.4,0.0,30.05,NW,315,3.1,6.9,0,0.00,,,0.00,WUHU216HW,2013-07-31 18:10:00,
2013-07-31 14:15:00,81.4,0.0,30.05,WSW,248,1.1,8.5,0,0.00,,,0.00,WUHU216HW,2013-07-31 18:15:00,
2013-07-31 14:20:00,81.2,0.0,30.05,West,270,1.8,8.5,0,0.00,,,0.00,WUHU216HW,2013-07-31 18:20:00,
2013-07-31 14:25:00,81.4,0.0,30.05,SE,135,1.1,5.4,0,0.00,,,0.00,WUHU216HW,2013-07-31 18:25:00,
2013-07-31 14:30:00,81.4,0.0,30.04,West,270,4.0,5.4,0,0.00,,,0.00,WUHU216HW,2013-07-31 18:30:00,
2013-07-31 14:35:00,81.9,0.0,30.04,SE,135,1.8,4.0,0,0.00,,,0.00,WUHU216HW,2013-07-31 18:35:00,
2013-07-31 14:40:00,82.3,0.0,30.04,WSW,248,5.1,5.1,0,0.00,,,0.00,WUHU216HW,2013-07-31 18:40:00,
2013-07-31 14:45:00,82.1,0.0,30.04,WSW,248,3.8,5.1,0,0.00,,,0.00,WUHU216HW,2013-07-31 18:45:00,
2013-07-31 14:50:00,82.4,0.0,30.04,NNW,338,1.8,5.1,0,0.00,,,0.00,WUHU216HW,2013-07-31 18:50:00,
2013-07-31 14:55:00,83.0,0.0,30.04,NNW,338,4.3,5.4,0,0.00,,,0.00,WUHU216HW,2013-07-31 18:55:00,
2013-07-31 15:00:00,83.3,0.0,30.04,SW,225,2.5,5.4,0,0.00,,,0.00,WUHU216HW,2013-07-31 19:00:00,
2013-07-31 15:05:00,83.5,0.0,30.04,NE,45,1.8,3.8,0,0.00,,,0.00,WUHU216HW,2013-07-31 19:05:00,
2013-07-31 15:10:00,83.9,0.0,30.04,SE,135,1.3,4.9,0,0.00,,,0.00,WUHU216HW,2013-07-31 19:10:00,
2013-07-31 15:15:00,84.2,0.0,30.04,SW,225,1.1,4.9,0,0.00,,,0.00,WUHU216HW,2013-07-31 19:15:00,
2013-07-31 15:19:00,84.2,0.0,30.03,WNW,293,3.4,5.6,0,0.00,,,0.00,WUHU216HW,2013-07-31 19:19:00,
2013-07-31 15:24:00,83.9,0.0,30.03,WNW,293,3.6,5.6,0,0.00,,,0.00,WUHU216HW,2013-07-31 19:24:00,
2013-07-31 15:29:00,83.2,0.0,30.03,SSE,158,0.4,3.6,0,0.00,,,0.00,WUHU216HW,2013-07-31 19:29:00,
2013-07-31 15:34:00,82.6,0.0,30.03,West,270,2.0,3.6,0,0.00,,,0.00,WUHU216HW,2013-07-31 19:34:00,
2013-07-31 15:39:00,83.0,0.0,30.03,WSW,248,0.4,3.4,0,0.00,,,0.00,WUHU216HW,2013-07-31 19:39:00,
2013-07-31 15:44:00,83.2,0.0,30.03,SE,135,1.1,3.4,0,0.00,,,0.00,WUHU216HW,2013-07-31 19:44:00,
2013-07-31 15:49:00,83.7,0.0,30.03,WNW,293,2.7,2.7,0,0.00,,,0.00,WUHU216HW,2013-07-31 19:49:00,
2013-07-31 15:54:00,83.0,0.0,30.03,WNW,293,0.9,2.7,0,0.00,,,0.00,WUHU216HW,2013-07-31 19:54:00,
2013-07-31 15:59:00,82.8,0.0,30.03,South,180,0.9,2.7,0,0.00,,,0.00,WUHU216HW,2013-07-31 19:59:00,
2013-07-31 16:04:00,83.2,0.0,30.03,WSW,248,0.9,1.6,0,0.00,,,0.00,WUHU216HW,2013-07-31 20:04:00,
2013-07-31 16:09:00,84.2,0.0,30.03,WNW,293,1.3,3.4,0,0.00,,,0.00,WUHU216HW,2013-07-31 20:09:00,
2013-07-31 16:14:00,85.1,0.0,30.02,SW,225,1.8,3.4,0,0.00,,,0.00,WUHU216HW,2013-07-31 20:14:00,
2013-07-31 16:19:00,85.3,0.0,30.03,West,270,1.8,3.1,0,0.00,,,0.00,WUHU216HW,2013-07-31 20:19:00,
2013-07-31 16:24:00,85.3,0.0,30.02,SSW,203,0.7,3.1,0,0.00,,,0.00,WUHU216HW,2013-07-31 20:24:00,
2013-07-31 16:29:00,85.5,0.0,30.02,SW,225,1.8,3.1,0,0.00,,,0.00,WUHU216HW,2013-07-31 20:29:00,
2013-07-31 16:34:00,85.3,0.0,30.02,WSW,248,1.1,3.4,0,0.00,,,0.00,WUHU216HW,2013-07-31 20:34:00,
2013-07-31 16:39:00,85.5,0.0,30.02,SE,135,1.6,3.4,0,0.00,,,0.00,WUHU216HW,2013-07-31 20:39:00,
2013-07-31 16:44:00,85.0,0.0,30.02,NW,315,1.6,1.8,0,0.00,,,0.00,WUHU216HW,2013-07-31 20:44:00,
2013-07-31 16:49:00,84.4,0.0,30.02,SE,135,1.3,1.8,0,0.00,,,0.00,WUHU216HW,2013-07-31 20:49:00,
2013-07-31 16:54:00,83.9,0.0,30.03,SSE,158,1.3,6.7,0,0.00,,,0.00,WUHU216HW,2013-07-31 20:54:00,
2013-07-31 16:59:00,83.7,0.0,30.02,SE,135,4.9,6.7,0,0.00,,,0.00,WUHU216HW,2013-07-31 20:59:00,
2013-07-31 17:04:00,82.3,0.0,30.02,East,90,3.8,6.3,0,0.00,,,0.00,WUHU216HW,2013-07-31 21:04:00,
2013-07-31 17:09:00,81.2,0.0,30.03,ESE,113,1.8,6.3,0,0.00,,,0.00,WUHU216HW,2013-07-31 21:09:00,
2013-07-31 17:14:00,80.3,0.0,30.03,East,90,2.7,4.0,0,0.00,,,0.00,WUHU216HW,2013-07-31 21:14:00,
2013-07-31 17:19:00,79.6,0.0,30.03,South,180,2.0,4.0,0,0.00,,,0.00,WUHU216HW,2013-07-31 21:19:00,
2013-07-31 17:24:00,79.4,0.0,30.03,SE,135,0.7,3.8,0,0.00,,,0.00,WUHU216HW,2013-07-31 21:24:00,
2013-07-31 17:29:00,79.6,0.0,30.03,SE,135,3.6,3.8,0,0.00,,,0.00,WUHU216HW,2013-07-31 21:29:00,
2013-07-31 17:34:00,79.9,0.0,30.02,ENE,68,4.0,4.7,0,0.00,,,0.00,WUHU216HW,2013-07-31 21:34:00,
2013-07-31 17:39:00,80.1,0.0,30.02,South,180,3.8,4.7,0,0.00,,,0.00,WUHU216HW,2013-07-31 21:39:00,
2013-07-31 17:44:00,79.9,0.0,30.02,ESE,113,3.8,4.7,0,0.00,,,0.00,WUHU216HW,2013-07-31 21:44:00,
2013-07-31 17:49:00,79.9,0.0,30.02,ESE,113,2.5,4.7,0,0.00,,,0.00,WUHU216HW,2013-07-31 21:49:00,
2013-07-31 17:54:00,79.6,0.0,30.02,ESE,113,2.5,4.3,0,0.00,,,0.00,WUHU216HW,2013-07-31 21:54:00,
2013-07-31 17:59:00,79.4,0.0,30.02,ESE,113,4.0,5.4,0,0.00,,,0.00,WUHU216HW,2013-07-31 21:59:00,
2013-07-31 18:04:00,78.8,0.0,30.02,SSE,158,2.5,5.4,0,0.00,,,0.00,WUHU216HW,2013-07-31 22:04:00,
2013-07-31 18:09:00,78.5,0.0,30.02,SE,135,5.4,5.6,0,0.00,,,0.00,WUHU216HW,2013-07-31 22:09:00,
2013-07-31 18:14:00,78.1,0.0,30.02,ESE,113,2.7,5.6,0,0.00,,,0.00,WUHU216HW,2013-07-31 22:14:00,
2013-07-31 18:19:00,77.8,0.0,30.02,ESE,113,2.5,5.4,0,0.00,,,0.00,WUHU216HW,2013-07-31 22:19:00,
2013-07-31 18:24:00,77.4,0.0,30.02,ESE,113,2.2,5.1,0,0.00,,,0.00,WUHU216HW,2013-07-31 22:24:00,
2013-07-31 18:29:00,77.0,0.0,30.02,ESE,113,3.1,3.6,0,0.00,,,0.00,WUHU216HW,2013-07-31 22:29:00,
2013-07-31 18:34:00,76.9,0.0,30.02,SE,135,2.7,4.0,0,0.00,,,0.00,WUHU216HW,2013-07-31 22:34:00,
2013-07-31 18:39:00,76.7,0.0,30.02,SSE,158,1.1,4.0,0,0.00,,,0.00,WUHU216HW,2013-07-31 22:39:00,
2013-07-31 18:44:00,76.3,0.0,30.02,East,90,2.2,3.4,0,0.00,,,0.00,WUHU216HW,2013-07-31 22:44:00,
2013-07-31 18:49:00,76.1,0.0,30.02,ESE,113,2.7,4.7,0,0.00,,,0.00,WUHU216HW,2013-07-31 22:49:00,
2013-07-31 18:54:00,75.8,0.0,30.02,SE,135,0.9,4.7,0,0.00,,,0.00,WUHU216HW,2013-07-31 22:54:00,
2013-07-31 18:59:00,75.4,0.0,30.02,ESE,113,1.6,4.3,0,0.00,,,0.00,WUHU216HW,2013-07-31 22:59:00,
2013-07-31 19:04:00,75.2,0.0,30.02,SE,135,1.3,4.3,0,0.00,,,0.00,WUHU216HW,2013-07-31 23:04:00,
2013-07-31 19:09:00,74.9,0.0,30.02,SE,135,1.8,3.4,0,0.00,,,0.00,WUHU216HW,2013-07-31 23:09:00,
2013-07-31 19:14:00,74.7,0.0,30.02,ESE,113,1.8,3.4,0,0.00,,,0.00,WUHU216HW,2013-07-31 23:14:00,
2013-07-31 19:19:00,74.3,0.0,30.02,ESE,113,2.7,2.9,0,0.00,,,0.00,WUHU216HW,2013-07-31 23:19:00,
2013-07-31 19:24:00,73.8,0.0,30.01,ESE,113,2.5,2.9,0,0.00,,,0.00,WUHU216HW,2013-07-31 23:24:00,
2013-07-31 19:29:00,73.4,0.0,30.01,ESE,113,1.3,2.7,0,0.00,,,0.00,WUHU216HW,2013-07-31 23:29:00,
2013-07-31 19:34:00,73.1,0.0,30.01,SSE,158,2.0,2.5,0,0.00,,,0.00,WUHU216HW,2013-07-31 23:34:00,
2013-07-31 19:39:00,72.7,0.0,30.01,SE,135,1.8,3.6,0,0.00,,,0.00,WUHU216HW,2013-07-31 23:39:00,
2013-07-31 19:44:00,72.4,0.0,30.01,SSE,158,2.2,3.6,0,0.00,,,0.00,WUHU216HW,2013-07-31 23:44:00,
2013-07-31 19:49:00,71.8,0.0,30.01,SE,135,2.5,3.6,0,0.00,,,0.00,WUHU216HW,2013-07-31 23:49:00,
2013-07-31 19:54:00,71.5,0.0,30.01,SE,135,0.4,3.1,0,0.00,,,0.00,WUHU216HW,2013-07-31 23:54:00,
2013-07-31 19:59:00,71.1,0.0,30.02,ESE,113,1.6,2.5,0,0.00,,,0.00,WUHU216HW,2013-07-31 23:59:00,
2013-07-31 20:04:00,70.6,0.0,30.02,ESE,113,2.5,3.1,0,0.00,,,0.00,WUHU216HW,2013-08-01 00:04:00,
2013-07-31 20:09:00,70.2,0.0,30.02,SE,135,0.4,3.1,0,0.00,,,0.00,WUHU216HW,2013-08-01 00:09:00,
2013-07-31 20:14:00,69.8,0.0,30.02,ESE,113,0.4,3.4,0,0.00,,,0.00,WUHU216HW,2013-08-01 00:14:00,
2013-07-31 20:19:00,69.5,0.0,30.02,East,90,1.1,3.4,0,0.00,,,0.00,WUHU216HW,2013-08-01 00:19:00,
2013-07-31 20:24:00,69.1,0.0,30.02,ESE,113,0.0,1.3,0,0.00,,,0.00,WUHU216HW,2013-08-01 00:24:00,
2013-07-31 20:29:00,68.8,0.0,30.02,ESE,113,0.9,1.1,0,0.00,,,0.00,WUHU216HW,2013-08-01 00:29:00,
2013-07-31 20:34:00,68.4,0.0,30.02,East,90,0.2,0.9,0,0.00,,,0.00,WUHU216HW,2013-08-01 00:34:00,
2013-07-31 20:39:00,68.0,0.0,30.02,East,90,0.0,0.9,0,0.00,,,0.00,WUHU216HW,2013-08-01 00:39:00,
2013-07-31 20:44:00,67.7,0.0,30.02,ESE,113,0.4,0.7,0,0.00,,,0.00,WUHU216HW,2013-08-01 00:44:00,
2013-07-31 20:49:00,67.3,0.0,30.02,ESE,113,0.2,0.7,0,0.00,,,0.00,WUHU216HW,2013-08-01 00:49:00,
2013-07-31 20:54:00,67.1,0.0,30.02,ESE,113,0.4,0.9,0,0.00,,,0.00,WUHU216HW,2013-08-01 00:54:00,
2013-07-31 20:59:00,66.8,0.0,30.02,ESE,113,0.0,0.9,0,0.00,,,0.00,WUHU216HW,2013-08-01 00:59:00,
2013-07-31 21:04:00,66.6,0.0,30.02,ESE,113,0.0,0.4,0,0.00,,,0.00,WUHU216HW,2013-08-01 01:04:00,
2013-07-31 21:09:00,66.2,0.0,30.02,ESE,113,0.0,0.4,0,0.00,,,0.00,WUHU216HW,2013-08-01 01:09:00,
2013-07-31 21:14:00,65.9,0.0,30.02,ESE,113,0.0,0.4,0,0.00,,,0.00,WUHU216HW,2013-08-01 01:14:00,
2013-07-31 21:19:00,65.7,0.0,30.03,SE,135,0.0,0.4,0,0.00,,,0.00,WUHU216HW,2013-08-01 01:19:00,
2013-07-31 21:24:00,65.5,0.0,30.03,SE,135,0.9,1.1,0,0.00,,,0.00,WUHU216HW,2013-08-01 01:24:00,
2013-07-31 21:29:00,65.2,0.0,30.03,SE,135,0.0,1.1,0,0.00,,,0.00,WUHU216HW,2013-08-01 01:29:00,
2013-07-31 21:34:00,65.0,0.0,30.02,East,90,0.2,0.9,0,0.00,,,0.00,WUHU216HW,2013-08-01 01:34:00,
2013-07-31 21:39:00,64.8,0.0,30.02,NE,45,0.2,0.7,0,0.00,,,0.00,WUHU216HW,2013-08-01 01:39:00,
2013-07-31 21:44:00,64.4,0.0,30.02,ENE,68,0.0,0.7,0,0.00,,,0.00,WUHU216HW,2013-08-01 01:44:00,
2013-07-31 21:49:00,64.4,0.0,30.02,ENE,68,0.0,0.0,0,0.00,,,0.00,WUHU216HW,2013-08-01 01:49:00,
2013-07-31 21:54:00,64.1,0.0,30.02,ENE,68,0.0,0.0,0,0.00,,,0.00,WUHU216HW,2013-08-01 01:54:00,
2013-07-31 21:59:00,64.1,0.0,30.02,ENE,68,0.0,0.0,0,0.00,,,0.00,WUHU216HW,2013-08-01 01:59:00,
2013-07-31 22:04:00,63.9,0.0,30.02,ENE,68,0.0,0.0,0,0.00,,,0.00,WUHU216HW,2013-08-01 02:04:00,
2013-07-31 22:09:00,63.7,0.0,30.02,WNW,293,0.4,0.7,0,0.00,,,0.00,WUHU216HW,2013-08-01 02:09:00,
2013-07-31 22:14:00,63.5,0.0,30.02,West,270,0.7,1.1,0,0.00,,,0.00,WUHU216HW,2013-08-01 02:14:00,
2013-07-31 22:19:00,63.5,0.0,30.03,West,270,0.4,1.1,0,0.00,,,0.00,WUHU216HW,2013-08-01 02:19:00,
2013-07-31 22:24:00,63.7,0.0,30.02,West,270,0.4,0.9,0,0.00,,,0.00,WUHU216HW,2013-08-01 02:24:00,
2013-07-31 22:29:00,63.7,0.0,30.02,WNW,293,0.4,0.9,0,0.00,,,0.00,WUHU216HW,2013-08-01 02:29:00,
2013-07-31 22:34:00,63.7,0.0,30.02,WNW,293,0.0,0.9,0,0.00,,,0.00,WUHU216HW,2013-08-01 02:34:00,
2013-07-31 22:39:00,63.5,0.0,30.02,WNW,293,0.0,0.4,0,0.00,,,0.00,WUHU216HW,2013-08-01 02:39:00,
2013-07-31 22:44:00,63.4,0.0,30.02,WNW,293,0.0,0.4,0,0.00,,,0.00,WUHU216HW,2013-08-01 02:44:00,
2013-07-31 22:49:00,63.2,0.0,30.02,WNW,293,0.0,0.4,0,0.00,,,0.00,WUHU216HW,2013-08-01 02:49:00,
2013-07-31 22:54:00,63.0,0.0,30.02,WNW,293,0.0,0.0,0,0.00,,,0.00,WUHU216HW,2013-08-01 02:54:00,
2013-07-31 22:59:00,62.8,0.0,30.02,WNW,293,0.0,0.0,0,0.00,,,0.00,WUHU216HW,2013-08-01 02:59:00,
2013-07-31 23:04:00,62.6,0.0,30.02,WNW,293,0.0,0.0,0,0.00,,,0.00,WUHU216HW,2013-08-01 03:04:00,
2013-07-31 23:09:00,62.5,0.0,30.02,West,270,0.0,0.2,0,0.00,,,0.00,WUHU216HW,2013-08-01 03:09:00,
2013-07-31 23:14:00,62.3,0.0,30.02,West,270,0.9,0.9,0,0.00,,,0.00,WUHU216HW,2013-08-01 03:14:00,
2013-07-31 23:19:00,62.3,0.0,30.02,WNW,293,0.4,0.9,0,0.00,,,0.00,WUHU216HW,2013-08-01 03:19:00,
2013-07-31 23:24:00,62.3,0.0,30.02,WNW,293,0.0,0.9,0,0.00,,,0.00,WUHU216HW,2013-08-01 03:24:00,
2013-07-31 23:29:00,62.3,0.0,30.02,WNW,293,0.0,0.4,0,0.00,,,0.00,WUHU216HW,2013-08-01 03:29:00,
2013-07-31 23:34:00,62.3,0.0,30.02,West,270,0.0,0.7,0,0.00,,,0.00,WUHU216HW,2013-08-01 03:34:00,
2013-07-31 23:39:00,62.3,0.0,30.02,West,270,0.0,0.7,0,0.00,,,0.00,WUHU216HW,2013-08-01 03:39:00,
2013-07-31 23:44:00,62.1,0.0,30.02,West,270,0.2,0.7,0,0.00,,,0.00,WUHU216HW,2013-08-01 03:44:00,
2013-07-31 23:49:00,61.9,0.0,30.02,West,270,0.0,0.7,0,0.00,,,0.00,WUHU216HW,2013-08-01 03:49:00,
2013-07-31 23:54:00,61.9,0.0,30.02,West,270,0.0,0.4,0,0.00,,,0.00,WUHU216HW,2013-08-01 03:54:00,
2013-07-31 23:59:00,61.7,0.0,30.02,West,270,0.0,0.0,0,0.00,,,0.00,WUHU216HW,2013-08-01 03:59:00,